TimeCST,TemperatureF,Dew PointF,Humidity,Sea Level PressureIn,VisibilityMPH,Wind Direction,Wind SpeedMPH,Gust SpeedMPH,PrecipitationIn,Events,Conditions,WindDirDegrees,DateUTC
12:53 AM,51.1,46.0,83,29.46,10.0,SE,16.1,28.8,0.00,Rain,Light Rain,140,2013-02-26 06:53:00
1:53 AM,51.1,46.9,86,29.48,10.0,South,6.9,-,0.05,,Overcast,170,2013-02-26 07:53:00
2:53 AM,52.0,48.0,86,29.44,10.0,SSE,18.4,25.3,N/A,,Overcast,150,2013-02-26 08:53:00
3:53 AM,53.1,48.0,83,29.41,10.0,SSE,20.7,28.8,0.00,,Overcast,150,2013-02-26 09:53:00
4:53 AM,52.0,46.9,83,29.41,10.0,SSE,15.0,27.6,N/A,,Overcast,150,2013-02-26 10:53:00
5:08 AM,51.8,48.2,88,29.44,2.5,WSW,12.7,21.9,0.10,Rain,Heavy Rain,240,2013-02-26 11:08:00
5:16 AM,53.6,48.2,82,29.44,1.8,SSW,10.4,-,0.20,Rain,Rain,210,2013-02-26 11:16:00
5:19 AM,53.6,48.2,82,29.45,3.0,SSW,8.1,-,0.20,Rain,Rain,210,2013-02-26 11:19:00
5:28 AM,53.6,48.2,82,29.45,5.0,SSW,12.7,18.4,0.21,Rain,Light Rain,200,2013-02-26 11:28:00
5:45 AM,51.8,48.2,88,29.45,10.0,SSW,10.4,-,0.22,,Overcast,200,2013-02-26 11:45:00
5:53 AM,52.0,46.9,83,29.45,6.0,South,8.1,-,0.22,Rain,Light Rain,190,2013-02-26 11:53:00
6:21 AM,51.8,48.2,88,29.46,10.0,South,5.8,-,0.00,,Overcast,170,2013-02-26 12:21:00
6:53 AM,51.1,46.9,86,29.44,10.0,SSE,3.5,-,0.01,,Overcast,150,2013-02-26 12:53:00
7:17 AM,51.8,46.4,82,29.46,7.0,South,5.8,-,0.00,Rain,Light Rain,190,2013-02-26 13:17:00
7:29 AM,51.8,46.4,82,29.47,5.0,West,18.4,23.0,0.01,Rain,Light Rain,260,2013-02-26 13:29:00
7:44 AM,48.2,44.6,87,29.48,6.0,WSW,18.4,-,0.01,,Haze,250,2013-02-26 13:44:00
7:53 AM,48.9,43.0,80,29.48,8.0,SW,13.8,20.7,0.01,,Overcast,230,2013-02-26 13:53:00
8:28 AM,46.4,39.2,76,29.51,10.0,WSW,17.3,21.9,N/A,,Overcast,240,2013-02-26 14:28:00
8:53 AM,46.9,37.9,71,29.52,10.0,WSW,15.0,26.5,N/A,,Overcast,240,2013-02-26 14:53:00
9:53 AM,48.9,36.0,61,29.54,10.0,WSW,21.9,27.6,N/A,,Scattered Clouds,240,2013-02-26 15:53:00
10:53 AM,48.0,35.1,61,29.57,10.0,WSW,17.3,24.2,N/A,,Overcast,240,2013-02-26 16:53:00
11:53 AM,48.0,35.1,61,29.56,10.0,SW,16.1,25.3,N/A,,Overcast,230,2013-02-26 17:53:00
12:53 PM,46.9,35.1,63,29.58,10.0,SW,17.3,28.8,N/A,,Overcast,230,2013-02-26 18:53:00
1:14 PM,46.4,35.6,66,29.58,10.0,SW,16.1,25.3,N/A,,Overcast,220,2013-02-26 19:14:00
1:33 PM,46.4,35.6,66,29.59,10.0,WSW,17.3,-,N/A,,Overcast,240,2013-02-26 19:33:00
1:53 PM,46.9,34.0,61,29.58,10.0,SW,18.4,28.8,N/A,,Overcast,230,2013-02-26 19:53:00
2:35 PM,44.6,37.4,76,29.60,9.0,WSW,19.6,25.3,0.00,Rain,Light Rain,240,2013-02-26 20:35:00
2:53 PM,45.0,37.0,74,29.61,10.0,WSW,12.7,-,0.00,,Overcast,240,2013-02-26 20:53:00
3:33 PM,44.6,35.6,71,29.62,10.0,SW,18.4,28.8,N/A,,Overcast,230,2013-02-26 21:33:00
3:53 PM,45.0,34.0,65,29.63,10.0,WSW,18.4,27.6,N/A,,Overcast,250,2013-02-26 21:53:00
4:53 PM,44.1,34.0,68,29.66,10.0,WSW,13.8,28.8,N/A,,Overcast,240,2013-02-26 22:53:00
5:06 PM,44.6,33.8,66,29.66,10.0,WSW,19.6,27.6,N/A,,Overcast,240,2013-02-26 23:06:00
5:53 PM,44.1,33.1,65,29.68,10.0,WSW,12.7,-,N/A,,Overcast,240,2013-02-26 23:53:00
6:53 PM,43.0,35.1,74,29.72,10.0,WSW,9.2,-,N/A,,Overcast,250,2013-02-27 00:53:00
7:29 PM,41.0,33.8,76,29.74,6.0,WSW,21.9,32.2,0.01,Rain,Light Rain,250,2013-02-27 01:29:00
7:48 PM,41.0,35.6,81,29.75,10.0,WSW,13.8,-,0.01,,Overcast,250,2013-02-27 01:48:00
7:53 PM,41.0,35.1,79,29.75,10.0,WSW,11.5,20.7,0.01,,Overcast,250,2013-02-27 01:53:00
8:53 PM,42.1,35.1,76,29.77,10.0,WSW,8.1,-,N/A,,Overcast,250,2013-02-27 02:53:00
9:53 PM,42.1,33.1,70,29.79,10.0,WSW,15.0,-,N/A,,Overcast,250,2013-02-27 03:53:00
10:53 PM,42.1,33.1,70,29.80,10.0,WSW,11.5,-,N/A,,Overcast,250,2013-02-27 04:53:00
11:53 PM,42.1,33.1,70,29.81,10.0,WSW,8.1,-,N/A,,Overcast,250,2013-02-27 05:53:00